Time,TemperatureF,DewpointF,PressureIn,WindDirection,WindDirectionDegrees,WindSpeedMPH,WindSpeedGustMPH,Humidity,HourlyPrecipIn,Conditions,Clouds,dailyrainin,SoftwareType,DateUTC
2013-06-19 00:01:00,72.0,-99.9,-100.00,SE,145,6.0,-999.0,0,-99.99,,,-99.99,,2013-06-19 05:01:00,
2013-06-19 00:11:00,73.0,-99.9,-100.00,SE,136,10.0,-999.0,0,-99.99,,,-99.99,,2013-06-19 05:11:00,
2013-06-19 00:23:00,72.0,-99.9,-100.00,SSE,152,7.0,-999.0,0,-99.99,,,-99.99,,2013-06-19 05:23:00,
2013-06-19 00:33:00,72.0,-99.9,-100.00,SE,143,7.0,-999.0,0,-99.99,,,-99.99,,2013-06-19 05:33:00,
2013-06-19 00:43:00,71.0,-99.9,-100.00,SSE,155,9.0,-999.0,0,-99.99,,,-99.99,,2013-06-19 05:43:00,
2013-06-19 00:52:00,71.0,-99.9,-100.00,SSE,148,11.0,-999.0,0,-99.99,,,-99.99,,2013-06-19 05:52:00,
2013-06-19 01:02:00,71.0,-99.9,-100.00,SSE,154,10.0,-999.0,0,-99.99,,,-99.99,,2013-06-19 06:02:00,
2013-06-19 01:12:00,70.0,-99.9,-100.00,SE,143,8.0,-999.0,0,-99.99,,,-99.99,,2013-06-19 06:12:00,
2013-06-19 01:22:00,69.0,-99.9,-100.00,SSE,159,5.0,-999.0,0,-99.99,,,-99.99,,2013-06-19 06:22:00,
2013-06-19 01:34:00,68.0,-99.9,-100.00,SSE,154,6.0,-999.0,0,-99.99,,,-99.99,,2013-06-19 06:34:00,
2013-06-19 01:43:00,69.0,-99.9,-100.00,SE,143,8.0,-999.0,0,-99.99,,,-99.99,,2013-06-19 06:43:00,
2013-06-19 01:52:00,67.0,-99.9,-100.00,SSE,158,5.0,-999.0,0,-99.99,,,-99.99,,2013-06-19 06:52:00,
2013-06-19 02:01:00,67.0,-99.9,-100.00,SSE,151,6.0,-999.0,0,-99.99,,,-99.99,,2013-06-19 07:01:00,
2013-06-19 02:12:00,67.0,-99.9,-100.00,SSE,157,5.0,-999.0,0,-99.99,,,-99.99,,2013-06-19 07:12:00,
2013-06-19 02:23:00,67.0,-99.9,-100.00,SSE,157,5.0,-999.0,0,-99.99,,,-99.99,,2013-06-19 07:23:00,
2013-06-19 02:33:00,67.0,-99.9,-100.00,ESE,104,8.0,-999.0,0,-99.99,,,-99.99,,2013-06-19 07:33:00,
2013-06-19 02:44:00,67.0,-99.9,-100.00,SE,135,3.0,-999.0,0,-99.99,,,-99.99,,2013-06-19 07:44:00,
2013-06-19 02:54:00,66.0,-99.9,-100.00,SE,132,4.0,-999.0,0,-99.99,,,-99.99,,2013-06-19 07:54:00,
2013-06-19 03:02:00,66.0,-99.9,-100.00,ESE,111,6.0,-999.0,0,-99.99,,,-99.99,,2013-06-19 08:02:00,
2013-06-19 03:11:00,66.0,-99.9,-100.00,SE,135,6.0,-999.0,0,-99.99,,,-99.99,,2013-06-19 08:11:00,
2013-06-19 03:22:00,66.0,-99.9,-100.00,SSE,162,3.0,-999.0,0,-99.99,,,-99.99,,2013-06-19 08:22:00,
2013-06-19 03:34:00,65.0,-99.9,-100.00,SE,141,6.0,-999.0,0,-99.99,,,-99.99,,2013-06-19 08:34:00,
2013-06-19 03:43:00,65.0,-99.9,-100.00,SE,139,5.0,-999.0,0,-99.99,,,-99.99,,2013-06-19 08:43:00,
2013-06-19 03:54:00,65.0,-99.9,-100.00,SSE,147,6.0,-999.0,0,-99.99,,,-99.99,,2013-06-19 08:54:00,
2013-06-19 04:02:00,65.0,-99.9,-100.00,SE,126,6.0,-999.0,0,-99.99,,,-99.99,,2013-06-19 09:02:00,
2013-06-19 04:12:00,65.0,-99.9,-100.00,SE,135,5.0,-999.0,0,-99.99,,,-99.99,,2013-06-19 09:12:00,
2013-06-19 04:22:00,64.0,-99.9,-100.00,SE,143,5.0,-999.0,0,-99.99,,,-99.99,,2013-06-19 09:22:00,
2013-06-19 04:34:00,64.0,-99.9,-100.00,SE,130,8.0,-999.0,0,-99.99,,,-99.99,,2013-06-19 09:34:00,
2013-06-19 04:44:00,64.0,-99.9,-100.00,SSE,163,4.0,-999.0,0,-99.99,,,-99.99,,2013-06-19 09:44:00,
2013-06-19 04:53:00,63.0,-99.9,-100.00,SSE,165,4.0,-999.0,0,-99.99,,,-99.99,,2013-06-19 09:53:00,
2013-06-19 05:02:00,63.0,-99.9,-100.00,SSE,156,3.0,-999.0,0,-99.99,,,-99.99,,2013-06-19 10:02:00,
2013-06-19 05:12:00,64.0,-99.9,-100.00,SSE,158,5.0,-999.0,0,-99.99,,,-99.99,,2013-06-19 10:12:00,
2013-06-19 05:22:00,64.0,-99.9,-100.00,SE,127,3.0,-999.0,0,-99.99,,,-99.99,,2013-06-19 10:22:00,
2013-06-19 05:33:00,64.0,-99.9,-100.00,South,170,2.0,-999.0,0,-99.99,,,-99.99,,2013-06-19 10:33:00,
2013-06-19 05:43:00,63.0,-99.9,-100.00,SSE,153,4.0,-999.0,0,-99.99,,,-99.99,,2013-06-19 10:43:00,
2013-06-19 05:53:00,64.0,-99.9,-100.00,SE,124,3.0,-999.0,0,-99.99,,,-99.99,,2013-06-19 10:53:00,
2013-06-19 06:02:00,63.0,-99.9,-100.00,SSE,151,5.0,-999.0,0,-99.99,,,-99.99,,2013-06-19 11:02:00,
2013-06-19 06:12:00,63.0,-99.9,-100.00,South,175,4.0,-999.0,0,-99.99,,,-99.99,,2013-06-19 11:12:00,
2013-06-19 06:22:00,63.0,-99.9,-100.00,SSE,166,3.0,-999.0,0,-99.99,,,-99.99,,2013-06-19 11:22:00,
2013-06-19 06:33:00,63.0,-99.9,-100.00,SSE,154,5.0,-999.0,0,-99.99,,,-99.99,,2013-06-19 11:33:00,
2013-06-19 06:43:00,63.0,-99.9,-100.00,SSE,166,3.0,-999.0,0,-99.99,,,-99.99,,2013-06-19 11:43:00,
2013-06-19 06:54:00,62.0,-99.9,-100.00,SSE,159,6.0,-999.0,0,-99.99,,,-99.99,,2013-06-19 11:54:00,
2013-06-19 07:02:00,62.0,-99.9,-100.00,SSE,163,5.0,-999.0,0,-99.99,,,-99.99,,2013-06-19 12:02:00,
2013-06-19 07:12:00,63.0,-99.9,-100.00,SSE,164,5.0,-999.0,0,-99.99,,,-99.99,,2013-06-19 12:12:00,
2013-06-19 07:22:00,63.0,-99.9,-100.00,SSE,164,5.0,-999.0,0,-99.99,,,-99.99,,2013-06-19 12:22:00,
2013-06-19 07:34:00,64.0,-99.9,-100.00,South,175,4.0,-999.0,0,-99.99,,,-99.99,,2013-06-19 12:34:00,
2013-06-19 07:44:00,65.0,-99.9,-100.00,SSE,163,8.0,-999.0,0,-99.99,,,-99.99,,2013-06-19 12:44:00,
2013-06-19 07:53:00,66.0,-99.9,-100.00,South,185,11.0,-999.0,0,-99.99,,,-99.99,,2013-06-19 12:53:00,
2013-06-19 08:02:00,66.0,-99.9,-100.00,South,180,10.0,-999.0,0,-99.99,,,-99.99,,2013-06-19 13:02:00,
2013-06-19 08:12:00,67.0,-99.9,-100.00,SSE,166,9.0,-999.0,0,-99.99,,,-99.99,,2013-06-19 13:12:00,
2013-06-19 08:22:00,67.0,-99.9,-100.00,SSE,166,9.0,-999.0,0,-99.99,,,-99.99,,2013-06-19 13:22:00,
2013-06-19 08:33:00,69.0,-99.9,-100.00,South,169,10.0,-999.0,0,-99.99,,,-99.99,,2013-06-19 13:33:00,
2013-06-19 08:43:00,70.0,-99.9,-100.00,SSE,166,7.0,-999.0,0,-99.99,,,-99.99,,2013-06-19 13:43:00,
2013-06-19 08:54:00,71.0,-99.9,-100.00,SSE,164,12.0,-999.0,0,-99.99,,,-99.99,,2013-06-19 13:54:00,
2013-06-19 09:02:00,72.0,-99.9,-100.00,SSE,167,10.0,-999.0,0,-99.99,,,-99.99,,2013-06-19 14:02:00,
2013-06-19 09:12:00,73.0,-99.9,-100.00,SSE,164,12.0,-999.0,0,-99.99,,,-99.99,,2013-06-19 14:12:00,
2013-06-19 09:23:00,74.0,-99.9,-100.00,South,173,10.0,-999.0,0,-99.99,,,-99.99,,2013-06-19 14:23:00,
2013-06-19 09:34:00,75.0,-99.9,-100.00,South,179,15.0,-999.0,0,-99.99,,,-99.99,,2013-06-19 14:34:00,
2013-06-19 09:44:00,76.0,-99.9,-100.00,South,178,10.0,-999.0,0,-99.99,,,-99.99,,2013-06-19 14:44:00,
2013-06-19 09:53:00,77.0,-99.9,-100.00,SSE,166,18.0,-999.0,0,-99.99,,,-99.99,,2013-06-19 14:53:00,
2013-06-19 10:02:00,77.0,-99.9,-100.00,South,187,17.0,-999.0,0,-99.99,,,-99.99,,2013-06-19 15:02:00,
2013-06-19 10:11:00,78.0,-99.9,-100.00,South,182,15.0,-999.0,0,-99.99,,,-99.99,,2013-06-19 15:11:00,
2013-06-19 10:22:00,78.0,-99.9,-100.00,South,182,15.0,-999.0,0,-99.99,,,-99.99,,2013-06-19 15:22:00,
2013-06-19 10:33:00,79.0,-99.9,-100.00,SSE,166,20.0,-999.0,0,-99.99,,,-99.99,,2013-06-19 15:33:00,
2013-06-19 10:43:00,78.0,-99.9,-100.00,South,180,19.0,-999.0,0,-99.99,,,-99.99,,2013-06-19 15:43:00,
2013-06-19 10:53:00,79.0,-99.9,-100.00,SSE,162,13.0,-999.0,0,-99.99,,,-99.99,,2013-06-19 15:53:00,
2013-06-19 11:02:00,79.0,-99.9,-100.00,South,186,17.0,-999.0,0,-99.99,,,-99.99,,2013-06-19 16:02:00,
2013-06-19 11:11:00,80.0,-99.9,-100.00,South,174,21.0,-999.0,0,-99.99,,,-99.99,,2013-06-19 16:11:00,
2013-06-19 11:22:00,80.0,-99.9,-100.00,South,171,17.0,-999.0,0,-99.99,,,-99.99,,2013-06-19 16:22:00,
2013-06-19 11:34:00,81.0,-99.9,-100.00,SSE,165,15.0,-999.0,0,-99.99,,,-99.99,,2013-06-19 16:34:00,
2013-06-19 11:43:00,81.0,-99.9,-100.00,SSE,164,15.0,-999.0,0,-99.99,,,-99.99,,2013-06-19 16:43:00,
2013-06-19 11:53:00,81.0,-99.9,-100.00,SSE,167,16.0,-999.0,0,-99.99,,,-99.99,,2013-06-19 16:53:00,
2013-06-19 12:02:00,81.0,-99.9,-100.00,SSE,158,20.0,-999.0,0,-99.99,,,-99.99,,2013-06-19 17:02:00,
2013-06-19 12:12:00,81.0,-99.9,-100.00,South,176,22.0,-999.0,0,-99.99,,,-99.99,,2013-06-19 17:12:00,
2013-06-19 12:22:00,82.0,-99.9,-100.00,SSE,167,14.0,-999.0,0,-99.99,,,-99.99,,2013-06-19 17:22:00,
2013-06-19 12:34:00,81.0,-99.9,-100.00,South,185,19.0,-999.0,0,-99.99,,,-99.99,,2013-06-19 17:34:00,
2013-06-19 12:43:00,82.0,-99.9,-100.00,SSE,162,19.0,-999.0,0,-99.99,,,-99.99,,2013-06-19 17:43:00,
2013-06-19 12:53:00,82.0,-99.9,-100.00,SSE,158,20.0,-999.0,0,-99.99,,,-99.99,,2013-06-19 17:53:00,
2013-06-19 13:02:00,83.0,-99.9,-100.00,SSE,158,24.0,-999.0,0,-99.99,,,-99.99,,2013-06-19 18:02:00,
2013-06-19 13:12:00,83.0,-99.9,-100.00,South,179,18.0,-999.0,0,-99.99,,,-99.99,,2013-06-19 18:12:00,
2013-06-19 13:24:00,83.0,-99.9,-100.00,South,179,18.0,-999.0,0,-99.99,,,-99.99,,2013-06-19 18:24:00,
2013-06-19 13:33:00,83.0,-99.9,-100.00,SSE,168,14.0,-999.0,0,-99.99,,,-99.99,,2013-06-19 18:33:00,
2013-06-19 13:44:00,83.0,-99.9,-100.00,South,175,17.0,-999.0,0,-99.99,,,-99.99,,2013-06-19 18:44:00,
2013-06-19 13:53:00,84.0,-99.9,-100.00,South,173,27.0,-999.0,0,-99.99,,,-99.99,,2013-06-19 18:53:00,
2013-06-19 14:02:00,84.0,-99.9,-100.00,SSE,160,17.0,-999.0,0,-99.99,,,-99.99,,2013-06-19 19:02:00,
2013-06-19 14:12:00,83.0,-99.9,-100.00,South,178,20.0,-999.0,0,-99.99,,,-99.99,,2013-06-19 19:12:00,
2013-06-19 14:22:00,83.0,-99.9,-100.00,South,188,24.0,-999.0,0,-99.99,,,-99.99,,2013-06-19 19:22:00,
2013-06-19 14:33:00,84.0,-99.9,-100.00,South,173,20.0,-999.0,0,-99.99,,,-99.99,,2013-06-19 19:33:00,
2013-06-19 14:44:00,84.0,-99.9,-100.00,South,174,33.0,-999.0,0,-99.99,,,-99.99,,2013-06-19 19:44:00,
2013-06-19 14:53:00,83.0,-99.9,-100.00,SSE,165,21.0,-999.0,0,-99.99,,,-99.99,,2013-06-19 19:53:00,
2013-06-19 15:02:00,84.0,-99.9,-100.00,South,177,21.0,-999.0,0,-99.99,,,-99.99,,2013-06-19 20:02:00,
2013-06-19 15:12:00,83.0,-99.9,-100.00,SSW,198,19.0,-999.0,0,-99.99,,,-99.99,,2013-06-19 20:12:00,
2013-06-19 15:22:00,83.0,-99.9,-100.00,SSW,198,19.0,-999.0,0,-99.99,,,-99.99,,2013-06-19 20:22:00,
2013-06-19 15:34:00,85.0,-99.9,-100.00,SSW,195,22.0,-999.0,0,-99.99,,,-99.99,,2013-06-19 20:34:00,
2013-06-19 15:43:00,84.0,-99.9,-100.00,South,184,29.0,-999.0,0,-99.99,,,-99.99,,2013-06-19 20:43:00,
2013-06-19 15:52:00,84.0,-99.9,-100.00,South,176,25.0,-999.0,0,-99.99,,,-99.99,,2013-06-19 20:52:00,
2013-06-19 16:02:00,85.0,-99.9,-100.00,South,188,20.0,-999.0,0,-99.99,,,-99.99,,2013-06-19 21:02:00,
2013-06-19 16:12:00,85.0,-99.9,-100.00,South,176,16.0,-999.0,0,-99.99,,,-99.99,,2013-06-19 21:12:00,
2013-06-19 16:22:00,85.0,-99.9,-100.00,South,176,16.0,-999.0,0,-99.99,,,-99.99,,2013-06-19 21:22:00,
2013-06-19 16:33:00,85.0,-99.9,-100.00,South,170,19.0,-999.0,0,-99.99,,,-99.99,,2013-06-19 21:33:00,
2013-06-19 16:44:00,85.0,-99.9,-100.00,SSE,155,14.0,-999.0,0,-99.99,,,-99.99,,2013-06-19 21:44:00,
2013-06-19 16:52:00,85.0,-99.9,-100.00,South,174,22.0,-999.0,0,-99.99,,,-99.99,,2013-06-19 21:52:00,
2013-06-19 17:02:00,86.0,-99.9,-100.00,SSE,167,22.0,-999.0,0,-99.99,,,-99.99,,2013-06-19 22:02:00,
2013-06-19 17:12:00,85.0,-99.9,-100.00,SSE,168,18.0,-999.0,0,-99.99,,,-99.99,,2013-06-19 22:12:00,
2013-06-19 17:22:00,85.0,-99.9,-100.00,SSE,168,18.0,-999.0,0,-99.99,,,-99.99,,2013-06-19 22:22:00,
2013-06-19 17:34:00,86.0,-99.9,-100.00,South,177,24.0,-999.0,0,-99.99,,,-99.99,,2013-06-19 22:34:00,
2013-06-19 17:43:00,85.0,-99.9,-100.00,SSE,159,18.0,-999.0,0,-99.99,,,-99.99,,2013-06-19 22:43:00,
2013-06-19 17:53:00,86.0,-99.9,-100.00,SSW,195,17.0,-999.0,0,-99.99,,,-99.99,,2013-06-19 22:53:00,
2013-06-19 18:02:00,86.0,-99.9,-100.00,South,174,16.0,-999.0,0,-99.99,,,-99.99,,2013-06-19 23:02:00,
2013-06-19 18:12:00,82.0,-99.9,-100.00,South,189,25.0,-999.0,0,-99.99,,,-99.99,,2013-06-19 23:12:00,
2013-06-19 18:23:00,82.0,-99.9,-100.00,SSW,194,17.0,-999.0,0,-99.99,,,-99.99,,2013-06-19 23:23:00,
2013-06-19 18:34:00,77.0,-99.9,-100.00,SSW,199,14.0,-999.0,0,-99.99,,,-99.99,,2013-06-19 23:34:00,
2013-06-19 18:43:00,78.0,-99.9,-100.00,South,176,11.0,-999.0,0,-99.99,,,-99.99,,2013-06-19 23:43:00,
2013-06-19 18:52:00,77.0,-99.9,-100.00,SSE,156,17.0,-999.0,0,-99.99,,,-99.99,,2013-06-19 23:52:00,
2013-06-19 19:02:00,74.0,-99.9,-100.00,SSW,204,19.0,-999.0,0,-99.99,,,-99.99,,2013-06-20 00:02:00,
2013-06-19 19:12:00,76.0,-99.9,-100.00,SSW,200,9.0,-999.0,0,-99.99,,,-99.99,,2013-06-20 00:12:00,
2013-06-19 19:22:00,77.0,-99.9,-100.00,SSE,162,10.0,-999.0,0,-99.99,,,-99.99,,2013-06-20 00:22:00,
2013-06-19 19:34:00,77.0,-99.9,-100.00,SSE,162,10.0,-999.0,0,-99.99,,,-99.99,,2013-06-20 00:34:00,
2013-06-19 19:44:00,80.0,-99.9,-100.00,SSE,150,10.0,-999.0,0,-99.99,,,-99.99,,2013-06-20 00:44:00,
2013-06-19 19:52:00,80.0,-99.9,-100.00,SSE,157,7.0,-999.0,0,-99.99,,,-99.99,,2013-06-20 00:52:00,
2013-06-19 20:02:00,80.0,-99.9,-100.00,SSE,152,10.0,-999.0,0,-99.99,,,-99.99,,2013-06-20 01:02:00,
2013-06-19 20:12:00,80.0,-99.9,-100.00,SSE,152,6.0,-999.0,0,-99.99,,,-99.99,,2013-06-20 01:12:00,
2013-06-19 20:22:00,79.0,-99.9,-100.00,SE,144,9.0,-999.0,0,-99.99,,,-99.99,,2013-06-20 01:22:00,
2013-06-19 20:34:00,80.0,-99.9,-100.00,SSE,152,8.0,-999.0,0,-99.99,,,-99.99,,2013-06-20 01:34:00,
2013-06-19 20:44:00,80.0,-99.9,-100.00,SSE,161,11.0,-999.0,0,-99.99,,,-99.99,,2013-06-20 01:44:00,
2013-06-19 20:53:00,80.0,-99.9,-100.00,SSE,159,11.0,-999.0,0,-99.99,,,-99.99,,2013-06-20 01:53:00,
2013-06-19 21:02:00,79.0,-99.9,-100.00,SSE,164,8.0,-999.0,0,-99.99,,,-99.99,,2013-06-20 02:02:00,
2013-06-19 21:12:00,78.0,-99.9,-100.00,SSE,158,9.0,-999.0,0,-99.99,,,-99.99,,2013-06-20 02:12:00,
2013-06-19 21:24:00,78.0,-99.9,-100.00,SSE,151,7.0,-999.0,0,-99.99,,,-99.99,,2013-06-20 02:24:00,
2013-06-19 21:34:00,78.0,-99.9,-100.00,SSE,158,12.0,-999.0,0,-99.99,,,-99.99,,2013-06-20 02:34:00,
2013-06-19 21:43:00,78.0,-99.9,-100.00,SSE,151,13.0,-999.0,0,-99.99,,,-99.99,,2013-06-20 02:43:00,
2013-06-19 21:53:00,78.0,-99.9,-100.00,SSE,161,10.0,-999.0,0,-99.99,,,-99.99,,2013-06-20 02:53:00,
2013-06-19 22:02:00,78.0,-99.9,-100.00,SSE,162,14.0,-999.0,0,-99.99,,,-99.99,,2013-06-20 03:02:00,
2013-06-19 22:12:00,78.0,-99.9,-100.00,SSE,166,14.0,-999.0,0,-99.99,,,-99.99,,2013-06-20 03:12:00,
2013-06-19 22:22:00,78.0,-99.9,-100.00,SSE,166,14.0,-999.0,0,-99.99,,,-99.99,,2013-06-20 03:22:00,
2013-06-19 22:33:00,78.0,-99.9,-100.00,South,171,14.0,-999.0,0,-99.99,,,-99.99,,2013-06-20 03:33:00,
2013-06-19 22:43:00,78.0,-99.9,-100.00,SSE,167,13.0,-999.0,0,-99.99,,,-99.99,,2013-06-20 03:43:00,
2013-06-19 22:54:00,78.0,-99.9,-100.00,SSE,161,15.0,-999.0,0,-99.99,,,-99.99,,2013-06-20 03:54:00,
2013-06-19 23:02:00,77.0,-99.9,-100.00,South,175,13.0,-999.0,0,-99.99,,,-99.99,,2013-06-20 04:02:00,
2013-06-19 23:12:00,77.0,-99.9,-100.00,South,178,14.0,-999.0,0,-99.99,,,-99.99,,2013-06-20 04:12:00,
2013-06-19 23:23:00,77.0,-99.9,-100.00,South,170,16.0,-999.0,0,-99.99,,,-99.99,,2013-06-20 04:23:00,
2013-06-19 23:34:00,77.0,-99.9,-100.00,SSE,161,15.0,-999.0,0,-99.99,,,-99.99,,2013-06-20 04:34:00,
2013-06-19 23:44:00,77.0,-99.9,-100.00,SSE,166,15.0,-999.0,0,-99.99,,,-99.99,,2013-06-20 04:44:00,
2013-06-19 23:54:00,76.0,-99.9,-100.00,SSE,166,17.0,-999.0,0,-99.99,,,-99.99,,2013-06-20 04:54:00,